• Em Portugal
  • Lista de países
  • Para 7 dias
  • Temperatura da água
  • Mapas de satélite
  • Mapa do tempo
  • Widgets de tempo
  • user-avatar
    Iniciar Sessão

    Previsão horária em Costa Dourada

    Hoje, 17 Agosto, Sexta-feira

    Tempo Temperatura Precipitação Vento Pressão Humidade
    00:00 +16°C° 0 mm 3 m/s 755 mmHg 37%
    01:00 +14°C° 0 mm 3 m/s 755 mmHg 37%
    02:00 +14°C° 0 mm 3 m/s 755 mmHg 38%
    03:00 +13°C° 0 mm 3 m/s 755 mmHg 38%
    04:00 +14°C° 0 mm 2 m/s 755 mmHg 36%
    05:00 +14°C° 0 mm 2 m/s 755 mmHg 38%
    06:00 +14°C° 0 mm 2 m/s 756 mmHg 39%
    07:00 +14°C° 0 mm 2 m/s 756 mmHg 40%
    08:00 +17°C° 0 mm 2 m/s 756 mmHg 36%
    09:00 +21°C° 0 mm 2 m/s 756 mmHg 31%
    10:00 +26°C° 0 mm 1 m/s 757 mmHg 26%
    11:00 +27°C° 0 mm 2 m/s 756 mmHg 25%
    12:00 +28°C° 0 mm 2 m/s 756 mmHg 24%
    13:00 +29°C° 0 mm 3 m/s 755 mmHg 23%
    14:00 +28°C° 0 mm 3 m/s 755 mmHg 27%
    15:00 +27°C° 0 mm 3 m/s 755 mmHg 30%
    16:00 +27°C° 0 mm 4 m/s 754 mmHg 33%
    17:00 +24°C° 0 mm 3 m/s 755 mmHg 37%
    18:00 +21°C° 0 mm 3 m/s 755 mmHg 41%
    19:00 +19°C° 0 mm 3 m/s 755 mmHg 45%
    20:00 +18°C° 0 mm 3 m/s 756 mmHg 47%
    21:00 +17°C° 0 mm 3 m/s 756 mmHg 48%
    22:00 +17°C° 0 mm 4 m/s 757 mmHg 50%
    23:00 +15°C° 0 mm 4 m/s 757 mmHg 52%

    Amanhã, 18 Agosto, Sábado

    Tempo Temperatura Precipitação Vento Pressão Humidade
    00:00 +14°C° 0 mm 4 m/s 757 mmHg 54%
    01:00 +13°C° 0 mm 5 m/s 757 mmHg 56%
    02:00 +13°C° 0 mm 4 m/s 757 mmHg 56%
    03:00 +12°C° 0 mm 4 m/s 757 mmHg 57%
    04:00 +11°C° 0 mm 4 m/s 757 mmHg 57%
    05:00 +11°C° 0 mm 4 m/s 757 mmHg 57%
    06:00 +11°C° 0 mm 3 m/s 758 mmHg 56%
    07:00 +11°C° 0 mm 3 m/s 758 mmHg 56%
    08:00 +14°C° 0 mm 3 m/s 758 mmHg 46%
    09:00 +18°C° 0 mm 3 m/s 758 mmHg 37%
    10:00 +22°C° 0 mm 3 m/s 758 mmHg 27%
    11:00 +24°C° 0 mm 3 m/s 758 mmHg 25%
    12:00 +26°C° 0 mm 3 m/s 757 mmHg 22%
    13:00 +27°C° 0 mm 3 m/s 756 mmHg 19%
    14:00 +27°C° 0 mm 3 m/s 756 mmHg 21%
    15:00 +26°C° 0 mm 3 m/s 755 mmHg 23%
    16:00 +26°C° 0 mm 3 m/s 755 mmHg 25%
    17:00 +22°C° 0 mm 3 m/s 755 mmHg 29%
    18:00 +20°C° 0 mm 3 m/s 756 mmHg 33%
    19:00 +17°C° 0 mm 3 m/s 756 mmHg 37%
    20:00 +17°C° 0 mm 3 m/s 757 mmHg 38%
    21:00 +16°C° 0 mm 3 m/s 757 mmHg 40%
    22:00 +14°C° 0 mm 3 m/s 757 mmHg 41%
    23:00 +14°C° 0 mm 4 m/s 757 mmHg 41%

    Depois de amanhã, 19 Agosto, Domingo

    Tempo Temperatura Precipitação Vento Pressão Humidade
    00:00 +14°C° 0 mm 4 m/s 757 mmHg 41%
    01:00 +13°C° 0 mm 5 m/s 757 mmHg 42%
    02:00 +13°C° 0 mm 5 m/s 757 mmHg 45%
    03:00 +12°C° 0 mm 5 m/s 757 mmHg 48%
    04:00 +12°C° 0 mm 5 m/s 757 mmHg 51%
    05:00 +10°C° 0 mm 5 m/s 757 mmHg 52%
    06:00 +10°C° 0 mm 5 m/s 758 mmHg 54%
    07:00 +9°C° 0 mm 5 m/s 758 mmHg 55%
    08:00 +12°C° 0 mm 5 m/s 758 mmHg 46%
    09:00 +15°C° 0 mm 5 m/s 758 mmHg 36%
    10:00 +17°C° 0 mm 5 m/s 759 mmHg 27%
    11:00 +19°C° 0 mm 5 m/s 758 mmHg 24%
    12:00 +20°C° 0 mm 5 m/s 757 mmHg 22%
    13:00 +21°C° 0 mm 5 m/s 756 mmHg 19%
    14:00 +20°C° 0 mm 6 m/s 756 mmHg 20%
    15:00 +20°C° 0 mm 6 m/s 756 mmHg 20%
    16:00 +18°C° 0 mm 7 m/s 755 mmHg 20%
    17:00 +17°C° 0 mm 7 m/s 756 mmHg 23%
    18:00 +15°C° 0 mm 7 m/s 757 mmHg 26%
    19:00 +12°C° 0 mm 8 m/s 757 mmHg 29%
    20:00 +11°C° 0 mm 8 m/s 758 mmHg 31%
    21:00 +11°C° 0 mm 8 m/s 758 mmHg 34%
    22:00 +10°C° 0 mm 8 m/s 759 mmHg 37%
    23:00 +9°C° 0 mm 8 m/s 759 mmHg 38%

    20 Agosto, Segunda-feira

    Tempo Temperatura Precipitação Vento Pressão Humidade
    00:00 +9°C° 0 mm 8 m/s 758 mmHg 40%
    01:00 +7°C° 0 mm 8 m/s 758 mmHg 41%
    02:00 +7°C° 0 mm 8 m/s 758 mmHg 42%
    03:00 +6°C° 0 mm 8 m/s 758 mmHg 43%
    04:00 +6°C° 0 mm 8 m/s 758 mmHg 44%
    05:00 +6°C° 0 mm 8 m/s 758 mmHg 44%
    06:00 +6°C° 0 mm 8 m/s 759 mmHg 44%
    07:00 +6°C° 0 mm 8 m/s 759 mmHg 45%
    08:00 +10°C° 0 mm 7 m/s 759 mmHg 39%
    09:00 +12°C° 0 mm 7 m/s 759 mmHg 34%
    10:00 +16°C° 0 mm 6 m/s 759 mmHg 29%
    11:00 +17°C° 0 mm 6 m/s 759 mmHg 24%
    12:00 +19°C° 0 mm 5 m/s 758 mmHg 20%
    13:00 +21°C° 0 mm 5 m/s 758 mmHg 16%
    14:00 +21°C° 0 mm 5 m/s 758 mmHg 16%
    15:00 +21°C° 0 mm 5 m/s 758 mmHg 16%
    16:00 +21°C° 0 mm 5 m/s 758 mmHg 17%
    17:00 +17°C° 0 mm 5 m/s 758 mmHg 22%
    18:00 +14°C° 0 mm 5 m/s 759 mmHg 28%
    19:00 +12°C° 0 mm 5 m/s 760 mmHg 33%
    20:00 +10°C° 0 mm 5 m/s 760 mmHg 37%
    21:00 +9°C° 0 mm 5 m/s 761 mmHg 40%
    22:00 +8°C° 0 mm 5 m/s 761 mmHg 43%
    23:00 +8°C° 0 mm 5 m/s 761 mmHg 45%

    21 Agosto, Terça-feira

    Tempo Temperatura Precipitação Vento Pressão Humidade
    00:00 +7°C° 0 mm 5 m/s 761 mmHg 46%
    01:00 +7°C° 0 mm 5 m/s 761 mmHg 48%
    02:00 +6°C° 0 mm 5 m/s 761 mmHg 48%
    03:00 +6°C° 0 mm 4 m/s 761 mmHg 49%
    04:00 +5°C° 0 mm 4 m/s 760 mmHg 49%
    05:00 +6°C° 0 mm 4 m/s 761 mmHg 48%
    06:00 +7°C° 0 mm 3 m/s 761 mmHg 47%
    07:00 +7°C° 0 mm 3 m/s 761 mmHg 46%
    08:00 +11°C° 0 mm 3 m/s 761 mmHg 38%
    09:00 +15°C° 0 mm 2 m/s 761 mmHg 30%
    10:00 +19°C° 0 mm 2 m/s 761 mmHg 23%
    11:00 +20°C° 0 mm 2 m/s 760 mmHg 20%
    12:00 +21°C° 0 mm 2 m/s 759 mmHg 18%
    13:00 +24°C° 0 mm 2 m/s 759 mmHg 16%
    14:00 +23°C° 0 mm 2 m/s 758 mmHg 17%
    15:00 +22°C° 0 mm 3 m/s 758 mmHg 18%
    16:00 +22°C° 0 mm 4 m/s 758 mmHg 20%
    17:00 +19°C° 0 mm 4 m/s 758 mmHg 27%
    18:00 +15°C° 0 mm 4 m/s 759 mmHg 34%
    19:00 +12°C° 0 mm 3 m/s 759 mmHg 40%
    20:00 +12°C° 0 mm 3 m/s 760 mmHg 40%
    21:00 +11°C° 0 mm 3 m/s 760 mmHg 40%
    22:00 +10°C° 0 mm 3 m/s 760 mmHg 40%
    23:00 +9°C° 0 mm 3 m/s 760 mmHg 39%

    22 Agosto, Quarta-feira

    Tempo Temperatura Precipitação Vento Pressão Humidade
    00:00 +9°C° 0 mm 3 m/s 760 mmHg 38%
    01:00 +8°C° 0 mm 3 m/s 760 mmHg 37%
    02:00 +8°C° 0 mm 3 m/s 760 mmHg 40%
    03:00 +8°C° 0 mm 3 m/s 760 mmHg 42%
    04:00 +7°C° 0 mm 3 m/s 760 mmHg 45%
    05:00 +8°C° 0 mm 3 m/s 760 mmHg 46%
    06:00 +8°C° 0 mm 3 m/s 761 mmHg 47%
    07:00 +8°C° 0 mm 3 m/s 761 mmHg 47%
    08:00 +13°C° 0 mm 2 m/s 761 mmHg 42%
    09:00 +17°C° 0 mm 2 m/s 761 mmHg 38%
    10:00 +22°C° 0 mm 1 m/s 761 mmHg 33%
    11:00 +23°C° 0 mm 1 m/s 760 mmHg 29%
    12:00 +24°C° 0 mm 1 m/s 759 mmHg 25%
    13:00 +25°C° 0 mm 2 m/s 759 mmHg 21%
    14:00 +25°C° 0 mm 2 m/s 758 mmHg 22%
    15:00 +24°C° 0 mm 3 m/s 758 mmHg 23%
    16:00 +22°C° 0 mm 3 m/s 758 mmHg 25%
    17:00 +20°C° 0 mm 3 m/s 758 mmHg 35%
    18:00 +17°C° 0 mm 2 m/s 759 mmHg 46%
    19:00 +14°C° 0 mm 2 m/s 759 mmHg 56%
    20:00 +13°C° 0 mm 2 m/s 760 mmHg 60%
    21:00 +13°C° 0 mm 2 m/s 760 mmHg 63%
    22:00 +12°C° 0 mm 2 m/s 760 mmHg 66%
    23:00 +12°C° 0 mm 2 m/s 760 mmHg 63%
    Mostrar mais